Location: Pitton
(51.0667°N, 1.7000°W)
Time: 08:23:58
(UTC+00:00)

Cosmos 2327 Rocket - Pass Details

Date: 17 September 2019
Orbit: 943 x 1009 km, 83.0° (Epoch: 14 October)

Event Time Altitude Azimuth Distance (km) Brightness Sun altitude
Rises 19:00:50 0° 350° (N) 3,710 7.9 -7.6°
Reaches altitude 10° 19:03:23 10° 352° (N) 2,748 7.2 -8.0°
Maximum altitude 19:09:41 78° 79° (ENE) 997 4.5 -9.0°
Drops below altitude 10° 19:15:51 10° 166° (SSE) 2,684 6.5 -9.9°
Sets 19:18:19 0° 168° (SSE) 3,618 7.2 -10.3°
